Regional Weather Roundup
Issued by NWS

Home | Current Version | Previous Version | Graphics & Text | Print | Product List | Glossary On
Versions: 1 2 3 4 5 6 7 8 9 10 11 12 13 14 15 16 17 18 19 20 21 22 23 24 25 26 27
000
ASUS45 KSLC 152110
RWRUT

UTAH REGIONAL WEATHER ROUNDUP
NATIONAL WEATHER SERVICE SALT LAKE CITY UT
300 PM MDT TUE AUG 15 2017

UTZ001>011-023>025-152200-

NORTHERN UTAH

CITY           SKY/WX    TMP DP  RH WIND       PRES   REMARKS
BRIGHAM CITY   SUNNY     77  37  23 NW3       29.96S
DUGWAY         MOSUNNY   82  35  18 NW8       29.93
HILL AFB       MOSUNNY   76  39  26 NW9       29.97F
LOGAN          SUNNY     76  41  28 VRB5      29.96F
OGDEN          SUNNY     77  39  25 N6        29.95F
SALT LAKE CITY MOSUNNY   81  44  27 NW8       29.93F
TOOELE VALLEY  SUNNY     77  46  33 N9G16     29.96F
WENDOVER       SUNNY     79  41  25 SE13      29.95F
HEBER CITY     MOSUNNY   81  37  21 SW9       29.97S
WEST JORDAN    SUNNY     76  55  47 NW10      29.96F

$$

UTZ011>015-024>027-152200-

CENTRAL/NORTHEAST UTAH

CITY           SKY/WX    TMP DP  RH WIND       PRES   REMARKS
PROVO AIRPORT  MOSUNNY   78  49  35 W7        29.95F
MOAB/CANYONLAN CLOUDY    83  32  16 SW20G32   29.93S
DELTA          SUNNY     81  37  21 W6        29.95F
PRICE          CLOUDY    77  38  24 W15       30.00F
RICHFIELD      MOSUNNY   79  37  22 W2        29.97
ROOSEVELT      CLOUDY    81  37  21 W17       29.96F THUNDER
VERNAL         CLOUDY    71  48  43 SE13G22   29.95R

$$

UTZ013>016-019>022-027-152200-

SOUTHERN UTAH

CITY           SKY/WX    TMP DP  RH WIND       PRES   REMARKS
BRYCE CANYON   PTSUNNY   71  32  23 SE17G23   30.14F
CEDAR CITY     SUNNY     82  28  14 SW13G20   29.98F
MILFORD        MOSUNNY   82  39  21 NE6       29.95F
ST GEORGE      PTCLDY    89  33  13 VRB6      29.82F
HANKSVILLE     CLOUDY    84  30  14 SW10      29.94F
KANAB          SUNNY     82  23  11 S6G18     30.02
BLANDING       CLOUDY    75  29  18 SW9G16    30.13S

$$

REGIONAL REPORTS     COLORADO/ARIZONA

CITY           SKY/WX    TMP DP  RH WIND       PRES   REMARKS
CRAIG, CO      CLOUDY    75  41  29 W24G33    30.00F
GRAND JUNCTION CLOUDY    81  36  19 W18       29.93R
RIFLE, CO      CLOUDY    81  29  15 SW25G32   29.96S
MONTROSE, CO   CLOUDY    75  31  19 SW9       30.03S
CORTEZ, CO     CLOUDY    75  30  19 SW13      30.07S
COLORADO CITY    N/A     84  32  15 E8        30.00F
PAGE, AZ       CLOUDY    84  28  13 VRB6      29.94F
GRAND CANYON   PTSUNNY   73  23  15 SW18G26   30.13S
KINGMAN, AZ    SUNNY     88  26  10 SW17G24   29.90F
FLAGSTAFF, AZ  CLOUDY    66  37  34 SW15G23   30.17S

$$

REGIONAL REPORTS    NEVADA/IDAHO/WYOMING

CITY           SKY/WX    TMP DP  RH WIND       PRES   REMARKS
LAS VEGAS, NV  MOSUNNY   92  44  19 VRB3      29.78R
ELY, NY        SUNNY     79  36  21 S8        30.00F
ELKO, NV       SUNNY     80  34  19 VRB3      29.97F
POCATELLO, ID  MOSUNNY   75  47  36 SW9       29.97F
BURLEY, ID     SUNNY     75  46  35 VRB3      29.94F
FORT BRIDGER,  MOCLDY    70  37  30 NW13      30.09F
EVANSTON, WY   CLOUDY    71  37  28 NW7G17    30.07F
ROCK SPRINGS,  CLOUDY    64  45  49 W9        30.06S
KEMMERER, WY     N/A     68  37  32 W14G20    30.09S

$$




USA.gov is the U.S. government's official web portal to all federal, state and local government web resources and services.